Location: Cran-Gévrier
(45.9039°N, 6.1012°E)
Time: 01:22:43
(UTC+00:00)

STRAND 1 - Pass Details

Date: 15 December 2023
Orbit: 766 x 778 km, 98.4° (Epoch: 03 March)

Event Time Altitude Azimuth Distance (km) Brightness Sun altitude
Exits shadow 18:54:15 51° 303° (WNW) 966 ? -30.8°
Maximum altitude 18:54:33 52° 290° (WNW) 957 ? -30.8°
Drops below altitude 10° 18:59:28 10° 215° (SW) 2,309 ? -31.7°
Sets 19:01:49 0° 210° (SSW) 3,233 ? -32.1°
